User: anonymous   Login
Location: Pilipovskiye Korichintsy
(49.1833°N, 27.4667°E)
Time: 22:23:21
(UTC+00:00)
Language:

IRS-1C - Orbit

View from above orbital plane
View from above orbital plane
View from above satellite
View from above satellite

Ground track
Ground track

The orbit data is extracted from the following two-line orbital elements,

1 23751U 95072A   20272.61976237 +.00000002 +00000-0 +20933-4 0  9998
2 23751 098.8287 222.8705 0000964 092.7588 267.3700 14.22633287284676
Epoch (UTC): 28 September 2020 14:52:27
Eccentricity: 0.0000964
inclination: 98.8287°
perigee height: 816 km
apogee height: 817 km
right ascension of ascending node: 222.8705°
argument of perigee: 92.7588°
revolutions per day: 14.22633287
mean anomaly at epoch: 267.3700°
orbit number at epoch: 28467

The dashed part of the orbit path shows where the satellite is in the earth's shadow,  

DLR